Simultaneous Nadir Overpasses (SNOs) Predictions

Prediction of SNOs over PacNW region [( 10.00, 139.50) to ( 22.70, 165.60)] between AQUA and NPP Satellites:

Table of predicted SNOs over PacNW region for the next 30.0 days since TLE Epoch: 3/30/2013
Index Date (AQUA) Time (AQUA) AQUA Lat,Lon Date (NPP) Time (NPP) NPP Lat,Lon Distance(km) Time Diff (sec)
1 04/03/2013 16:00:14 22.60, 147.37 04/03/2013 16:01:03 23.26, 144.44 309.47 49
2 04/11/2013 15:11:23 20.99, 159.34 04/11/2013 15:10:55 21.52, 156.68 281.96 28
3 04/19/2013 16:00:26 22.60, 147.36 04/19/2013 16:01:16 23.25, 144.41 310.44 50




NCC Satellite Simultaneous Nadir Overpasses (SNOs) Prediction Service
